Regional Weather Roundup
Issued by NWS

Home | Current Version | Previous Version | Graphics & Text | Print | Product List | Glossary On
Versions: 1 2 3 4 5 6 7 8 9 10 11 12 13 14 15 16 17 18 19 20 21 22 23 24 25 26 27 28 29 30 31 32 33 34 35 36 37 38 39 40 41 42 43 44 45 46 47 48 49 50
000
ASUS45 KABQ 250801
RWRNM
WEATHER ROUNDUP FOR NEW MEXICO
NATIONAL WEATHER SERVICE ALBUQUERQUE NM
100 AM MST SUN JAN 25 2015

NOTE: "FAIR" MEANS FEW OR NO CLOUDS BELOW 12,000 FEET AGL WITH NO
       SIGNIFICANT WEATHER OR OBSTRUCTIONS TO VISION.

      THIS PRODUCT IS RELEASED AS TWO VERSIONS.  ONE VERSION NEAR
      THE TOP OF THE HOUR CONTAINING PRELIMINARY DATA FROM ALBUQUERQUE
      AND OTHER STATIONS.  A FINAL VERSION WITH ADDITIONAL DATA IS
      ISSUED ABOUT 10 MINUTES AFTER THE HOUR.

NMZ501-503-504-510>518-250900-
NORTHWEST PLATEAU/NORTHCENTRAL MOUNTAINS

CITY           SKY/WX    TMP DP  RH WIND       PRES   REMARKS
FARMINGTON     CLEAR     24  16  71 E3        30.27F
SANTA FE       PTCLDY    28  18  66 NW6       30.24S WCI  22
TAOS           PTCLDY    18  12  79 NE5       30.25F WCI  11

$$
NMZ402-403-502-505>509-250900-
WESTCENTRAL MOUNTAINS/SOUTHWEST MOUNTAINS

CITY           SKY/WX    TMP DP  RH WIND       PRES   REMARKS
GALLUP         CLEAR     25  19  78 CALM      30.30R
GRANTS         CLEAR     22  19  90 CALM      30.30S
SILVER CITY    PTCLDY    28  18  64 N6        30.24S WCI  22

$$
NMZ407-409-411-412-250900-
SOUTHERN DESERTS

CITY           SKY/WX    TMP DP  RH WIND       PRES   REMARKS
DEMING         MOCLDY    28  22  78 NW7       30.23F WCI  21
HOLLOMAN AFB   PTCLDY    28  24  82 NW2       30.21R
ALAMOGORDO     PTCLDY    30  23  74 CALM      30.22S
T OR C         CLEAR     33  20  58 N8        30.22R WCI  26

$$
NMZ519>523-250900-
CENTRAL VALLEYS/CENTRAL HIGHLANDS

CITY           SKY/WX    TMP DP  RH WIND       PRES   REMARKS
ALBUQUERQUE    PTCLDY    36  18  48 NE5       30.27R WCI  32
DOUBLE EAGLE   CLEAR     34  17  48 NW13      30.26R WCI  25
MORIARTY ARPT  FAIR      30  21  69 NE6       30.23S WCI  24
CLINES CORNERS PTCLDY    27  17  66 NW13      30.19S WCI  16
BELEN          FAIR      28  21  78 CALM      30.27R
SOCORRO        NOT AVBL

$$
NMZ524>526-539-540-250900-
SOUTHCENTRAL MOUNTAINS

CITY           SKY/WX    TMP DP  RH WIND       PRES   REMARKS
RUIDOSO        NOT AVBL

$$
NMZ527>531-250900-
NORTHEAST HIGHLANDS/NORTHEAST PLAINS

CITY           SKY/WX    TMP DP  RH WIND       PRES   REMARKS
LAS VEGAS      CLEAR     35  14  42 NE6       30.18R WCI  30
RATON          CLEAR     32  19  58 NW5       30.12S WCI  27
CLAYTON        PTCLDY    38  22  52 N14       30.11R WCI  30

$$
NMZ532>537-250900-
EASTCENTRAL PLAINS

CITY           SKY/WX    TMP DP  RH WIND       PRES   REMARKS
TUCUMCARI      PTCLDY    25  22  88 S8        30.12R WCI  16
CANNON AFB     PTCLDY    33  25  72 N14       30.10R WCI  23
CLOVIS AIRPORT PTCLDY    32  25  74 N13       30.11R WCI  22

$$
NMZ028-029-538-250900-
SOUTHEAST PLAINS

CITY           SKY/WX    TMP DP  RH WIND       PRES   REMARKS
ROSWELL        CLEAR     30  26  85 CALM      30.11R
ARTESIA        CLEAR     32  28  86 N7        30.12S WCI  26
CARLSBAD       PTCLDY    46  17  31 NE3       30.09R
HOBBS          PTCLDY    32  27  80 W5        30.11R WCI  27


$$


USA.gov is the U.S. government's official web portal to all federal, state and local government web resources and services.